5 kleines Gehege Affenhaus Messungen

Zurück zum Überblick

Zeitpunkt Temperatur Luftfeuchte
28.05.2020 20:35:39 22,4 C 41,0%
28.05.2020 20:28:38 22,5 C 40,0%
28.05.2020 20:21:37 22,7 C 40,0%
28.05.2020 20:14:33 22,8 C 39,0%
28.05.2020 20:07:32 22,9 C 39,0%
28.05.2020 20:00:31 23,0 C 39,0%
28.05.2020 19:53:29 23,1 C 38,0%
28.05.2020 19:46:29 23,3 C 38,0%
28.05.2020 19:39:26 23,4 C 38,0%
28.05.2020 19:32:24 23,6 C 38,0%
28.05.2020 19:25:23 23,7 C 38,0%
28.05.2020 19:18:22 23,8 C 38,0%
28.05.2020 19:11:21 24,0 C 38,0%
28.05.2020 19:04:19 24,2 C 38,0%
28.05.2020 18:57:17 24,3 C 38,0%
28.05.2020 18:50:16 24,4 C 38,0%
28.05.2020 18:43:14 24,5 C 38,0%
28.05.2020 18:36:11 24,6 C 38,0%
28.05.2020 18:29:08 24,6 C 38,0%
28.05.2020 18:22:05 24,7 C 38,0%
28.05.2020 18:15:03 24,7 C 38,0%
28.05.2020 18:08:02 24,7 C 37,0%
28.05.2020 18:00:59 24,7 C 38,0%
28.05.2020 17:53:57 24,7 C 38,0%
28.05.2020 17:46:56 24,6 C 39,0%
28.05.2020 17:39:54 24,6 C 39,0%
28.05.2020 17:32:51 24,5 C 39,0%
28.05.2020 17:25:49 24,4 C 39,0%
28.05.2020 17:18:46 24,3 C 39,0%
28.05.2020 17:11:44 24,2 C 39,0%
28.05.2020 17:04:42 24,1 C 41,0%
28.05.2020 16:57:38 24,0 C 41,0%
28.05.2020 16:50:35 23,9 C 41,0%
28.05.2020 16:43:32 23,8 C 42,0%
28.05.2020 16:36:30 23,7 C 43,0%
28.05.2020 16:29:28 23,7 C 45,0%
28.05.2020 16:22:26 23,5 C 45,0%
28.05.2020 16:15:23 23,4 C 46,0%
28.05.2020 16:08:20 23,3 C 48,0%
28.05.2020 16:01:17 23,2 C 48,0%
28.05.2020 15:54:16 23,1 C 48,0%
28.05.2020 15:47:15 22,9 C 49,0%
28.05.2020 15:40:12 22,8 C 49,0%
28.05.2020 15:33:11 22,6 C 50,0%
28.05.2020 15:26:09 22,4 C 50,0%
28.05.2020 15:19:05 22,2 C 50,0%
28.05.2020 15:12:04 22,0 C 50,0%
28.05.2020 15:05:03 21,7 C 50,0%
28.05.2020 14:58:00 21,5 C 50,0%
28.05.2020 14:50:57 21,4 C 50,0%
28.05.2020 14:43:56 21,3 C 50,0%
28.05.2020 14:36:54 21,1 C 52,0%
28.05.2020 14:29:52 21,0 C 52,0%
28.05.2020 14:22:50 20,8 C 52,0%
28.05.2020 14:15:49 20,7 C 52,0%
28.05.2020 14:08:47 20,5 C 52,0%
28.05.2020 14:01:44 20,4 C 52,0%
28.05.2020 13:54:42 20,2 C 53,0%
28.05.2020 13:47:40 20,1 C 52,0%
28.05.2020 13:40:38 19,9 C 53,0%
28.05.2020 13:33:36 19,8 C 52,0%
28.05.2020 13:26:35 19,6 C 52,0%
28.05.2020 13:19:34 19,5 C 52,0%
28.05.2020 13:12:34 19,4 C 52,0%
28.05.2020 13:05:31 19,2 C 52,0%
28.05.2020 12:58:30 19,1 C 52,0%
28.05.2020 12:51:28 19,0 C 53,0%
28.05.2020 12:44:27 19,0 C 53,0%
28.05.2020 12:37:24 18,9 C 53,0%
28.05.2020 12:30:23 18,8 C 53,0%
28.05.2020 12:23:23 18,7 C 53,0%
28.05.2020 12:16:22 18,7 C 53,0%
28.05.2020 12:09:20 18,6 C 54,0%
28.05.2020 12:02:19 18,6 C 54,0%
28.05.2020 11:55:17 18,5 C 54,0%
28.05.2020 11:48:15 18,4 C 53,0%
28.05.2020 11:41:13 18,4 C 54,0%
28.05.2020 11:34:12 18,4 C 55,0%
28.05.2020 11:27:11 18,4 C 55,0%
28.05.2020 11:20:10 18,4 C 56,0%
28.05.2020 11:13:08 18,3 C 57,0%
28.05.2020 11:06:06 18,3 C 57,0%
28.05.2020 10:59:04 18,2 C 57,0%
28.05.2020 10:52:01 18,2 C 57,0%
28.05.2020 10:44:59 18,2 C 57,0%
28.05.2020 10:37:56 18,1 C 57,0%
28.05.2020 10:30:53 18,1 C 57,0%
28.05.2020 10:23:53 18,1 C 58,0%
28.05.2020 10:16:52 18,1 C 58,0%
28.05.2020 10:09:49 18,0 C 58,0%
28.05.2020 10:02:46 18,0 C 57,0%
28.05.2020 09:55:45 18,0 C 57,0%
28.05.2020 09:48:42 17,9 C 57,0%
28.05.2020 09:41:40 17,9 C 58,0%
28.05.2020 09:34:37 17,9 C 58,0%
28.05.2020 09:27:35 17,9 C 58,0%
28.05.2020 09:20:35 17,9 C 58,0%
28.05.2020 09:13:32 17,9 C 58,0%
28.05.2020 09:06:30 17,9 C 58,0%
28.05.2020 08:59:29 17,9 C 58,0%
28.05.2020 08:52:26 17,9 C 58,0%
28.05.2020 08:45:25 17,9 C 57,0%
28.05.2020 08:38:23 17,9 C 57,0%
28.05.2020 08:31:20 17,8 C 57,0%
28.05.2020 08:24:19 17,9 C 57,0%
28.05.2020 08:17:18 17,9 C 57,0%
28.05.2020 08:10:16 18,0 C 57,0%
28.05.2020 08:03:16 18,0 C 57,0%
28.05.2020 07:56:13 18,0 C 57,0%
28.05.2020 07:49:10 18,1 C 58,0%
28.05.2020 07:42:08 18,1 C 58,0%
28.05.2020 07:35:08 18,2 C 58,0%
28.05.2020 07:28:06 18,2 C 58,0%
28.05.2020 07:21:03 18,2 C 58,0%
28.05.2020 07:14:03 18,3 C 58,0%
28.05.2020 07:07:00 18,3 C 58,0%
28.05.2020 06:59:57 18,3 C 58,0%
28.05.2020 06:52:54 18,3 C 58,0%
28.05.2020 06:45:54 18,4 C 57,0%
28.05.2020 06:38:51 18,4 C 57,0%
28.05.2020 06:31:48 18,4 C 57,0%
28.05.2020 06:24:46 18,4 C 57,0%
28.05.2020 06:17:43 18,4 C 57,0%
28.05.2020 06:10:40 18,5 C 57,0%
28.05.2020 06:03:38 18,5 C 57,0%
28.05.2020 05:56:37 18,5 C 57,0%
28.05.2020 05:49:33 18,5 C 57,0%
28.05.2020 05:42:31 18,6 C 57,0%
28.05.2020 05:35:29 18,7 C 57,0%
28.05.2020 05:28:28 18,7 C 56,0%
28.05.2020 05:21:24 18,7 C 56,0%
28.05.2020 05:14:22 18,7 C 56,0%
28.05.2020 05:07:20 18,8 C 56,0%
28.05.2020 05:00:20 18,8 C 56,0%
28.05.2020 04:53:18 18,9 C 55,0%
28.05.2020 04:46:17 18,9 C 55,0%
28.05.2020 04:39:17 18,9 C 55,0%
28.05.2020 04:32:15 19,0 C 55,0%
28.05.2020 04:25:14 19,0 C 55,0%
28.05.2020 04:18:11 19,0 C 55,0%
28.05.2020 04:11:10 19,1 C 55,0%
28.05.2020 04:04:08 19,1 C 55,0%
28.05.2020 03:57:05 19,2 C 55,0%
28.05.2020 03:50:04 19,2 C 55,0%
28.05.2020 03:43:03 19,2 C 55,0%
28.05.2020 03:36:02 19,3 C 55,0%
28.05.2020 03:29:01 19,3 C 54,0%
28.05.2020 03:21:59 19,3 C 54,0%
28.05.2020 03:14:56 19,3 C 54,0%
28.05.2020 03:07:55 19,3 C 54,0%
28.05.2020 03:00:55 19,4 C 54,0%
28.05.2020 02:53:52 19,4 C 54,0%
28.05.2020 02:46:51 19,5 C 54,0%
28.05.2020 02:39:50 19,4 C 54,0%
28.05.2020 02:32:47 19,5 C 54,0%
28.05.2020 02:25:45 19,5 C 54,0%
28.05.2020 02:18:44 19,6 C 54,0%
28.05.2020 02:11:42 19,6 C 54,0%
28.05.2020 02:04:38 19,6 C 54,0%
28.05.2020 01:57:37 19,6 C 53,0%
28.05.2020 01:50:35 19,7 C 53,0%
28.05.2020 01:43:34 19,7 C 53,0%
28.05.2020 01:36:33 19,7 C 53,0%
28.05.2020 01:29:32 19,8 C 53,0%
28.05.2020 01:22:29 19,9 C 53,0%
28.05.2020 01:15:28 19,9 C 52,0%
28.05.2020 01:08:25 19,9 C 52,0%
28.05.2020 01:01:24 20,0 C 52,0%
28.05.2020 00:54:23 20,1 C 52,0%
28.05.2020 00:47:22 20,2 C 51,0%
28.05.2020 00:40:20 20,2 C 52,0%
28.05.2020 00:33:19 20,3 C 51,0%
28.05.2020 00:26:16 20,4 C 51,0%
28.05.2020 00:19:14 20,5 C 51,0%
28.05.2020 00:12:13 20,5 C 51,0%
28.05.2020 00:05:11 20,7 C 51,0%